Hilton Head Island, SC

1:04 AM EDT on July 26, 2017 (GMT -0400)
Hilton Head

Weather History for KHXD - March, 2013

Change the Weather History Date:

Tuesday, March 5, 2013

  Actual Average Record
Temperature  
Mean Temperature 53 °F -  
Max Temperature 64 °F 68 °F 84 °F (1985)
Min Temperature 42 °F 49 °F 24 °F (1978)
Degree Days  
Heating Degree Days 12    
Growing Degree Days 3 (Base 50)    
Moisture  
Dew Point 51 °F    
Average Humidity 89    
Maximum Humidity 100    
Minimum Humidity 48    
Precipitation  
Precipitation 0.14 in - - ()
Sea Level Pressure  
Sea Level Pressure 30.00 in    
Wind  
Wind Speed 5 mph (SSW)    
Max Wind Speed 20 mph    
Max Gust Speed 36 mph    
Visibility 10 miles    
Events Rain    
Averages and records for this station are not official NWS values.
T = Trace of Precipitation, MM = Missing Value Source: NWS Daily Summary

Daily Weather History Graph

Daily Weather History Graph

Search for Another Location

Airport or City:

Trip Planner

Search our weather history database for the weather conditions in past years. The results will help you decide how hot, cold, wet, or windy it might be!

Date:

Astronomy

Mar. 05, 2013 Rise Set
Actual Time 6:45 AM EST 6:23 PM EST
Civil Twilight 6:20 AM EST 6:48 PM EST
Nautical Twilight 5:52 AM EST 7:16 PM EST
Astronomical Twilight 5:23 AM EST 7:45 PM EST
Moon 1:40 AM EST (3/5) 12:16 PM EST (3/5)
Length of Visible Light 12h 27m
Length of Day
11h 38m
Last Quarter, 41% of the Moon is Illuminated
Mar 5
Last Quarter
Mar 11
New
Mar 19
First Quarter
Mar 27
Full
Apr 3
Last Quarter

Hourly Weather History & Observations

Time (EST) Temp. Windchill Dew Point Humidity Pressure Visibility Wind Dir Wind Speed Gust Speed Precip Events Conditions
12:15 AM 51.8 °F - 51.8 °F 100% 30.12 in 10.0 mi South 4.6 mph - 0.00 in   Clear
12:35 AM 51.8 °F - 51.8 °F 100% 30.10 in 10.0 mi South 6.9 mph - 0.00 in   Clear
12:55 AM 51.8 °F - 51.8 °F 100% 30.10 in 10.0 mi South 5.8 mph - 0.00 in   Clear
1:35 AM 51.8 °F - 51.8 °F 100% 30.13 in 10.0 mi Calm Calm - 0.00 in   Clear
1:55 AM 50.0 °F - 50.0 °F 100% 30.14 in 10.0 mi Calm Calm - 0.00 in   Clear
2:15 AM 48.2 °F - 48.2 °F 100% 30.14 in 10.0 mi Calm Calm - 0.00 in   Clear
2:35 AM 46.4 °F - 46.4 °F 100% 30.13 in 10.0 mi Calm Calm - 0.00 in   Clear
2:55 AM 46.4 °F - 46.4 °F 100% 30.12 in 10.0 mi Calm Calm - 0.00 in   Clear
3:15 AM 46.4 °F - 46.4 °F 100% 30.13 in 10.0 mi Calm Calm - 0.00 in   Clear
3:35 AM 44.6 °F - 44.6 °F 100% 30.13 in 10.0 mi Calm Calm - 0.00 in   Clear
4:15 AM 44.6 °F - 44.6 °F 100% 30.13 in 10.0 mi Calm Calm - 0.00 in   Clear
4:35 AM 44.6 °F 43.1 °F 44.6 °F 100% 30.14 in 10.0 mi WSW 3.5 mph - 0.00 in   Clear
4:55 AM 42.8 °F - 42.8 °F 100% 30.15 in 10.0 mi Calm Calm - 0.00 in   Clear
5:15 AM 42.8 °F - 42.8 °F 100% 30.15 in 10.0 mi Calm Calm - 0.00 in   Clear
5:35 AM 42.8 °F - 42.8 °F 100% 30.16 in 10.0 mi Calm Calm - 0.00 in   Clear
6:50 AM 46.4 °F - 41.0 °F 81% 30.15 in 10.0 mi Calm Calm - N/A   Scattered Clouds
7:50 AM 50.0 °F - 41.0 °F 71% 30.14 in 10.0 mi Calm Calm - N/A   Scattered Clouds
8:50 AM 55.4 °F - 42.8 °F 63% 30.14 in 10.0 mi South 9.2 mph - N/A   Scattered Clouds
9:50 AM 57.2 °F - 42.8 °F 59% 30.12 in 10.0 mi South 9.2 mph - N/A   Scattered Clouds
10:50 AM 59.0 °F - 39.2 °F 48% 30.11 in 10.0 mi South 11.5 mph 18.4 mph N/A   Scattered Clouds
11:50 AM 59.0 °F - 41.0 °F 51% 30.09 in 10.0 mi SSW 11.5 mph 20.7 mph N/A   Scattered Clouds
12:50 PM 59.0 °F - 44.6 °F 59% 30.05 in 10.0 mi South 8.1 mph 18.4 mph N/A   Mostly Cloudy
2:50 PM 60.8 °F - 46.4 °F 59% 29.98 in 10.0 mi SSW 9.2 mph 18.4 mph N/A   Mostly Cloudy
3:50 PM 59.0 °F - 48.2 °F 67% 29.96 in 10.0 mi SSW 8.1 mph - N/A   Mostly Cloudy
5:50 PM 59.0 °F - 50.0 °F 72% 29.88 in 10.0 mi South 8.1 mph - N/A   Clear
6:50 PM 60.8 °F - 50.0 °F 68% 29.86 in 10.0 mi South 19.6 mph - N/A   Mostly Cloudy
7:50 PM 60.8 °F - 53.6 °F 77% 29.82 in 10.0 mi South 10.4 mph - N/A   Clear
8:15 PM 60.8 °F - 60.8 °F 100% 29.81 in 10.0 mi South 9.2 mph 19.6 mph 0.00 in   Clear
8:35 PM 60.8 °F - 60.8 °F 100% 29.79 in 10.0 mi South 9.2 mph 18.4 mph 0.00 in   Clear
8:55 PM 60.8 °F - 60.8 °F 100% 29.80 in 10.0 mi South 10.4 mph 19.6 mph 0.00 in   Clear
9:15 PM 60.8 °F - 60.8 °F 100% 29.80 in 10.0 mi SSW 8.1 mph 17.3 mph 0.00 in   Partly Cloudy
9:35 PM 62.6 °F - 62.6 °F 100% 29.80 in 10.0 mi SSW 11.5 mph 18.4 mph 0.00 in   Mostly Cloudy
9:55 PM 62.6 °F - 62.6 °F 100% 29.79 in 10.0 mi South 15.0 mph 20.7 mph 0.00 in   Mostly Cloudy
10:15 PM 64.4 °F - 64.4 °F 100% 29.79 in 10.0 mi South 10.4 mph 19.6 mph 0.00 in   Mostly Cloudy
10:35 PM 62.6 °F - 62.6 °F 100% 29.83 in 3.0 mi West 11.5 mph 35.7 mph 0.11 in Rain Heavy Rain
10:55 PM 60.8 °F - 60.8 °F 100% 29.81 in 8.0 mi SW 13.8 mph 24.2 mph 0.14 in   Overcast
11:15 PM 60.8 °F - 60.8 °F 100% 29.79 in 10.0 mi SW 10.4 mph 17.3 mph 0.00 in   Overcast
11:35 PM 60.8 °F - 60.8 °F 100% 29.80 in 10.0 mi WSW 8.1 mph - 0.00 in   Overcast
11:55 PM 60.8 °F - 60.8 °F 100% 29.80 in 10.0 mi SW 11.5 mph 20.7 mph 0.00 in   Mostly Cloudy